Zurück zum Katalog

NOAA 16 DEB

AktivSSO
NORAD 42375·DEBRIS·🇺🇸 United States

Gestartet Sep 21, 2000 von Vandenberg Space Force Base

Loading…

Nächste Überflüge (nächste 24 Stunden)

TLE

AktuellSource: Space-Track

Epoche: Sep 14, 2026, 10:09 UTC

1 42375U 00055RT  26257.42296775  .00002142  00000-0  85429-3 0  9995
2 42375  98.6603 330.3848 0005160 219.0918 140.9892 14.29576234539010

Verfolge NOAA 16 DEB in Echtzeit mit AllMySat

Download on the App Store